EW5205 Weather Reports


Display with metric or nautical units.
time (UTC)temp
F
wind
direction
speed
MPH
gust
MPH
rain 1hr
in
rain 24hr
in
rain mn
in
humidity
%
barometer
mb
20260506204540 70 231 16.0 21.0 0.00 0.00 0.00 14 1015.3
20260506203133 68 220 8.0 20.0 0.00 0.00 0.00 15 1015.6
20260506201554 68 284 11.0 21.0 0.00 0.00 0.00 14 1015.8
20260506194600 67 221 9.0 19.0 0.00 0.00 0.00 16 1015.8
20260506193025 67 242 11.0 18.0 0.00 0.00 0.00 17 1016.1
20260506191632 66 278 6.0 17.0 0.00 0.00 0.00 17 1016.3
20260506184557 66 203 10.0 19.0 0.00 0.00 0.00 19 1016.7
20260506183013 65 216 6.0 17.0 0.00 0.00 0.00 19 1016.7
20260506181607 64 231 9.0 16.0 0.00 0.00 0.00 20 1016.8
20260506174537 63 190 11.0 18.0 0.00 0.00 0.00 22 1017.1
20260506173133 63 240 12.0 18.0 0.00 0.00 0.00 23 1017.3
20260506171609 62 150 8.0 16.0 0.00 0.00 0.00 25 1017.2
20260506170004 62 232 7.0 14.0 0.00 0.00 0.00 28 1017.1
20260506164507 62 247 9.0 25.0 0.00 0.00 0.00 29 1017.1
20260506163004 60 231 5.0 12.0 0.00 0.00 0.00 30 1017.1
20260506161600 60 216 8.0 15.0 0.00 0.00 0.00 32 1017.1
20260506160108 59 254 11.0 21.0 0.00 0.00 0.00 32 1016.7
20260506154554 57 243 10.0 14.0 0.00 0.00 0.00 34 1017.1
20260506153053 59 240 10.0 16.0 0.00 0.00 0.00 33 1017.0
20260506151549 58 223 7.0 11.0 0.00 0.00 0.00 36 1017.1
20260506150052 57 259 5.0 10.0 0.00 0.00 0.00 41 1017.3
20260506144553 57 254 4.0 7.0 0.00 0.00 0.00 44 1017.2
20260506143037 57 233 0.0 0.0 0.00 0.00 0.00 47 1017.4
20260506141535 54 40 0.0 0.0 0.00 0.00 0.00 51 1017.4
20260506140036 53 13 0.0 0.0 0.00 0.00 0.00 56 1017.4
20260506134533 52 57 0.0 4.0 0.00 0.00 0.00 56 1017.4
20260506133034 50 27 0.0 0.0 0.00 0.00 0.00 60 1017.2
20260506131537 48 315 0.0 0.0 0.00 0.00 0.00 63 1017.0
20260506130033 45 86 0.0 0.0 0.00 0.00 0.00 68 1016.8
20260506124532 43 98 0.0 0.0 0.00 0.00 0.00 68 1016.7
20260506123026 41 20 0.0 0.0 0.00 0.00 0.00 68 1016.6
20260506121522 43 133 0.0 0.0 0.00 0.00 0.00 68 1016.3
20260506120021 43 153 0.0 0.0 0.00 0.00 0.00 68 1016.1
20260506114531 43 152 0.0 0.0 0.00 0.00 0.00 68 1016.0
20260506113013 46 146 0.0 0.0 0.00 0.00 0.00 65 1016.1
20260506111508 47 206 0.0 0.0 0.00 0.00 0.00 62 1016.0
20260506110007 49 239 0.0 0.0 0.00 0.00 0.00 61 1015.9
20260506104504 50 239 0.0 0.0 0.00 0.00 0.00 59 1015.7
20260506103002 50 268 0.0 0.0 0.00 0.00 0.00 59 1015.7
20260506101500 49 207 0.0 0.0 0.00 0.00 0.00 60 1015.6
20260506100114 49 207 0.0 0.0 0.00 0.00 0.00 61 1015.5
20260506094557 49 132 0.0 0.0 0.00 0.00 0.00 62 1015.4
20260506093057 49 156 0.0 0.0 0.00 0.00 0.00 58 1015.2
20260506091553 52 306 0.0 0.0 0.00 0.00 0.00 52 1015.0
20260506090047 53 40 0.0 0.0 0.00 0.00 0.00 51 1014.9
20260506084544 54 288 0.0 0.0 0.00 0.00 0.00 49 1014.9
20260506083042 55 287 0.0 0.0 0.00 0.00 0.00 48 1014.8
20260506081543 56 302 2.0 7.0 0.00 0.00 0.00 47 1014.8
20260506073037 56 313 4.0 7.0 0.00 0.00 0.00 48 1014.6
20260506071537 55 323 3.0 7.0 0.00 0.00 0.00 50 1014.6
20260506061526 56 24 0.0 0.0 0.00 0.00 0.00 46 1013.8
20260506044527 55 201 4.0 7.0 0.00 0.00 0.00 45 1013.3
20260506043014 55 157 3.0 4.0 0.00 0.00 0.00 45 1013.3
20260506041513 55 204 2.0 4.0 0.00 0.00 0.00 43 1013.1
20260506040010 55 215 2.0 3.0 0.00 0.00 0.00 44 1013.0
20260506034508 57 228 2.0 3.0 0.00 0.00 0.00 42 1012.8
20260506033006 58 185 3.0 6.0 0.00 0.00 0.00 39 1012.7
20260506031516 60 187 4.0 6.0 0.00 0.00 0.00 37 1012.4
20260506030010 62 234 5.0 8.0 0.00 0.00 0.00 35 1012.3
20260506024512 63 209 5.0 13.0 0.00 0.00 0.00 33 1012.0
20260506023003 64 277 8.0 13.0 0.00 0.00 0.00 31 1011.8
20260506021503 65 232 10.0 16.0 0.00 0.00 0.00 31 1011.5
20260506020003 65 225 14.0 18.0 0.00 0.00 0.00 31 1011.2
20260506014501 66 246 11.0 16.0 0.00 0.00 0.00 31 1011.0
20260506013001 66 221 15.0 20.0 0.00 0.00 0.00 30 1010.8
20260506011530 66 212 15.0 23.0 0.00 0.00 0.00 30 1010.7
20260506004540 66 219 17.0 28.0 0.00 0.00 0.00 29 1010.4
20260506003122 67 223 18.0 25.0 0.00 0.00 0.00 29 1010.3
20260506001608 68 245 22.0 28.0 0.00 0.00 0.00 28 1010.3
20260505234632 68 235 18.0 27.0 0.00 0.00 0.00 28 1010.5
20260505233120 69 193 21.0 32.0 0.00 0.00 0.00 27 1010.1
20260505231526 69 173 18.0 29.0 0.00 0.00 0.00 27 1010.2
20260505224501 70 194 19.0 32.0 0.00 0.00 0.00 27 1010.1
20260505223057 69 188 22.0 30.0 0.00 0.00 0.00 28 1010.4
20260505221603 70 219 22.0 34.0 0.00 0.00 0.00 31 1010.6
20260505220054 68 232 18.0 26.0 0.00 0.00 0.00 33 1011.0
20260505214542 68 240 20.0 28.0 0.00 0.00 0.00 33 1011.1
20260505213046 67 218 18.0 30.0 0.00 0.00 0.00 36 1011.3
20260505211543 68 209 20.0 31.0 0.00 0.00 0.00 36 1011.3